| time (UTC) | temp F | wind direction | speed knots | gust knots | rain 1hr in | rain 24hr in | rain mn in | humidity % | barometer mb |
| 20260510045005 | 54 | 296 | 0.0 | 0.0 | 0.00 | 0.00 | 0.00 | 86 | 1010.5 |
| 20260510044527 | 55 | 296 | 0.0 | 0.0 | 0.00 | 0.00 | 0.00 | 84 | 1010.5 |
| 20260510043510 | 56 | 296 | 0.0 | 0.0 | 0.00 | 0.00 | 0.00 | 83 | 1010.6 |
| 20260510043018 | 56 | 296 | 0.0 | 0.0 | 0.00 | 0.00 | 0.00 | 82 | 1010.6 |
| 20260510042508 | 56 | 296 | 0.0 | 0.0 | 0.00 | 0.00 | 0.00 | 83 | 1010.6 |
| 20260510042008 | 57 | 296 | 0.0 | 0.0 | 0.00 | 0.00 | 0.00 | 82 | 1010.6 |
| 20260510041521 | 56 | 296 | 0.0 | 1.7 | 0.00 | 0.00 | 0.00 | 83 | 1010.5 |
| 20260510041010 | 56 | 296 | 0.0 | 1.7 | 0.00 | 0.00 | 0.00 | 83 | 1010.5 |
| 20260510040514 | 56 | 300 | 0.0 | 0.0 | 0.00 | 0.00 | 0.00 | 82 | 1010.5 |
| 20260510040036 | 57 | 300 | 0.0 | 0.0 | 0.00 | 0.00 | 0.00 | 82 | 1010.5 |
| 20260510035513 | 57 | 317 | 0.0 | 0.0 | 0.00 | 0.00 | 0.00 | 82 | 1010.5 |
| 20260510035007 | 57 | 317 | 0.0 | 1.7 | 0.00 | 0.00 | 0.00 | 82 | 1010.5 |
| 20260510034511 | 57 | 313 | 0.0 | 1.7 | 0.00 | 0.00 | 0.00 | 83 | 1010.5 |
| 20260510034005 | 56 | 294 | 0.0 | 0.0 | 0.00 | 0.00 | 0.00 | 83 | 1010.5 |
| 20260510033506 | 57 | 295 | 0.0 | 0.0 | 0.00 | 0.00 | 0.00 | 83 | 1010.4 |
| 20260510033014 | 57 | 295 | 0.0 | 0.0 | 0.00 | 0.00 | 0.00 | 83 | 1010.4 |
| 20260510032510 | 57 | 295 | 0.0 | 0.0 | 0.00 | 0.00 | 0.00 | 83 | 1010.3 |
| 20260510032013 | 56 | 295 | 0.0 | 0.0 | 0.00 | 0.00 | 0.00 | 84 | 1010.3 |
| 20260510031522 | 57 | 302 | 0.0 | 0.0 | 0.00 | 0.00 | 0.00 | 83 | 1010.3 |
| 20260510031009 | 57 | 302 | 0.0 | 0.0 | 0.00 | 0.00 | 0.00 | 83 | 1010.3 |
| 20260510030515 | 57 | 296 | 0.0 | 0.0 | 0.00 | 0.00 | 0.00 | 82 | 1010.3 |
| 20260510030021 | 57 | 296 | 0.0 | 0.0 | 0.00 | 0.00 | 0.00 | 82 | 1010.3 |
| 20260510025511 | 58 | 296 | 0.0 | 0.0 | 0.00 | 0.00 | 0.00 | 81 | 1010.3 |
| 20260510025008 | 58 | 296 | 0.0 | 0.0 | 0.00 | 0.00 | 0.00 | 81 | 1010.2 |
| 20260510024523 | 58 | 296 | 0.0 | 0.0 | 0.00 | 0.00 | 0.00 | 80 | 1010.2 |
| 20260510024011 | 58 | 296 | 0.0 | 0.0 | 0.00 | 0.00 | 0.00 | 80 | 1010.1 |
| 20260510023506 | 58 | 296 | 0.0 | 0.0 | 0.00 | 0.00 | 0.00 | 80 | 1010.0 |
| 20260510023012 | 58 | 300 | 0.0 | 0.0 | 0.00 | 0.00 | 0.00 | 80 | 1010.1 |
| 20260510022507 | 58 | 300 | 0.0 | 0.0 | 0.00 | 0.00 | 0.00 | 80 | 1010.2 |
| 20260510022008 | 58 | 300 | 0.0 | 0.0 | 0.00 | 0.00 | 0.00 | 79 | 1010.1 |
| 20260510021516 | 59 | 300 | 0.0 | 0.0 | 0.00 | 0.00 | 0.00 | 78 | 1010.0 |
| 20260510021008 | 59 | 300 | 0.0 | 0.0 | 0.00 | 0.00 | 0.00 | 78 | 1009.9 |
| 20260510020508 | 59 | 300 | 0.0 | 0.0 | 0.00 | 0.00 | 0.00 | 78 | 1009.9 |
| 20260510020023 | 59 | 300 | 0.0 | 0.0 | 0.00 | 0.00 | 0.00 | 77 | 1009.8 |
| 20260510015512 | 60 | 300 | 0.0 | 0.0 | 0.00 | 0.00 | 0.00 | 76 | 1009.8 |
| 20260510015014 | 60 | 300 | 0.0 | 0.0 | 0.00 | 0.00 | 0.00 | 76 | 1009.7 |
| 20260510014526 | 60 | 300 | 0.0 | 0.0 | 0.00 | 0.00 | 0.00 | 76 | 1009.8 |
| 20260510014008 | 61 | 305 | 0.0 | 0.0 | 0.00 | 0.00 | 0.00 | 75 | 1009.7 |
| 20260510013509 | 60 | 305 | 0.0 | 0.0 | 0.00 | 0.00 | 0.00 | 76 | 1009.6 |
| 20260510013024 | 60 | 301 | 0.0 | 0.0 | 0.00 | 0.00 | 0.00 | 75 | 1009.6 |
| 20260510012507 | 60 | 301 | 0.0 | 0.0 | 0.00 | 0.00 | 0.00 | 75 | 1009.5 |
| 20260510012006 | 61 | 301 | 0.0 | 0.0 | 0.00 | 0.00 | 0.00 | 74 | 1009.3 |
| 20260510011517 | 61 | 301 | 0.0 | 0.0 | 0.00 | 0.00 | 0.00 | 73 | 1009.2 |
| 20260510010507 | 62 | 301 | 0.0 | 0.0 | 0.00 | 0.00 | 0.00 | 73 | 1009.1 |
| 20260510010022 | 62 | 9 | 0.0 | 0.0 | 0.00 | 0.00 | 0.00 | 72 | 1009.0 |
| 20260510005511 | 63 | 9 | 0.0 | 0.0 | 0.00 | 0.00 | 0.00 | 70 | 1008.9 |
| 20260510005008 | 63 | 9 | 0.0 | 0.0 | 0.00 | 0.00 | 0.00 | 70 | 1008.9 |
| 20260510004523 | 63 | 9 | 0.0 | 0.0 | 0.00 | 0.00 | 0.00 | 69 | 1008.9 |
| 20260510004008 | 64 | 9 | 0.0 | 0.0 | 0.00 | 0.00 | 0.00 | 68 | 1008.8 |
| 20260510003511 | 64 | 9 | 0.0 | 0.0 | 0.00 | 0.00 | 0.00 | 68 | 1008.7 |
| 20260510003024 | 65 | 9 | 0.0 | 0.0 | 0.00 | 0.00 | 0.00 | 67 | 1008.8 |
| 20260510002512 | 65 | 98 | 0.0 | 0.0 | 0.00 | 0.00 | 0.00 | 67 | 1008.8 |
| 20260510002010 | 66 | 327 | 0.0 | 0.0 | 0.00 | 0.00 | 0.00 | 65 | 1008.8 |
| 20260510001526 | 66 | 327 | 0.0 | 0.0 | 0.00 | 0.00 | 0.00 | 65 | 1008.7 |
| 20260510001009 | 67 | 327 | 0.0 | 0.0 | 0.00 | 0.00 | 0.00 | 64 | 1008.7 |
| 20260510000507 | 68 | 327 | 0.0 | 0.0 | 0.00 | 0.00 | 0.00 | 63 | 1008.7 |
| 20260510000019 | 68 | 327 | 0.0 | 0.0 | 0.00 | 0.00 | 0.00 | 62 | 1008.6 |
| 20260509235507 | 69 | 327 | 0.0 | 0.0 | 0.00 | 0.00 | 0.00 | 60 | 1008.6 |
| 20260509235009 | 69 | 327 | 0.0 | 0.0 | 0.00 | 0.00 | 0.00 | 57 | 1008.5 |
| 20260509234529 | 71 | 327 | 0.0 | 0.0 | 0.00 | 0.00 | 0.00 | 54 | 1008.5 |
| 20260509234013 | 72 | 327 | 0.0 | 1.7 | 0.00 | 0.00 | 0.00 | 53 | 1008.5 |
| 20260509233510 | 72 | 329 | 0.0 | 1.7 | 0.00 | 0.00 | 0.00 | 57 | 1008.4 |
| 20260509233025 | 72 | 262 | 0.0 | 0.0 | 0.00 | 0.00 | 0.00 | 54 | 1008.3 |
| 20260509232510 | 74 | 262 | 0.0 | 0.0 | 0.00 | 0.00 | 0.00 | 53 | 1008.3 |
| 20260509232014 | 74 | 262 | 0.0 | 0.0 | 0.00 | 0.00 | 0.00 | 52 | 1008.2 |
| 20260509231010 | 74 | 262 | 0.0 | 0.0 | 0.00 | 0.00 | 0.00 | 45 | 1008.2 |
| 20260509230505 | 74 | 262 | 0.0 | 0.0 | 0.00 | 0.00 | 0.00 | 44 | 1008.2 |
| 20260509225507 | 74 | 309 | 0.0 | 1.7 | 0.00 | 0.00 | 0.00 | 46 | 1008.2 |
| 20260509225006 | 73 | 292 | 0.0 | 4.3 | 0.00 | 0.00 | 0.00 | 46 | 1008.2 |
| 20260509224003 | 73 | 271 | 0.9 | 4.3 | 0.00 | 0.00 | 0.00 | 46 | 1008.4 |
| 20260509223504 | 74 | 308 | 1.7 | 4.3 | 0.00 | 0.00 | 0.00 | 47 | 1008.3 |
| 20260509223007 | 73 | 289 | 0.0 | 2.6 | 0.00 | 0.00 | 0.00 | 47 | 1008.3 |
| 20260509222504 | 73 | 246 | 0.0 | 2.6 | 0.00 | 0.00 | 0.00 | 46 | 1008.3 |
| 20260509222007 | 73 | 261 | 0.9 | 2.6 | 0.00 | 0.00 | 0.00 | 46 | 1008.3 |
| 20260509221508 | 73 | 286 | 0.9 | 2.6 | 0.00 | 0.00 | 0.00 | 47 | 1008.3 |
| 20260509221005 | 73 | 253 | 0.9 | 3.5 | 0.00 | 0.00 | 0.00 | 45 | 1008.3 |
| 20260509220508 | 74 | 273 | 1.7 | 3.5 | 0.00 | 0.00 | 0.00 | 46 | 1008.4 |
| 20260509220011 | 74 | 278 | 0.0 | 3.5 | 0.00 | 0.00 | 0.00 | 45 | 1008.3 |
| 20260509215510 | 73 | 277 | 0.9 | 3.5 | 0.00 | 0.00 | 0.00 | 47 | 1008.3 |
| 20260509215008 | 73 | 306 | 0.9 | 1.7 | 0.00 | 0.00 | 0.00 | 47 | 1008.3 |
| 20260509214512 | 73 | 271 | 0.0 | 3.5 | 0.00 | 0.00 | 0.00 | 47 | 1008.3 |
| 20260509214008 | 73 | 207 | 0.0 | 4.3 | 0.00 | 0.00 | 0.00 | 46 | 1008.3 |
| 20260509212503 | 73 | 268 | 1.7 | 3.5 | 0.00 | 0.00 | 0.00 | 46 | 1008.3 |
| 20260509212008 | 73 | 276 | 2.6 | 6.1 | 0.00 | 0.00 | 0.00 | 46 | 1008.3 |
| 20260509211507 | 73 | 277 | 0.9 | 6.1 | 0.00 | 0.00 | 0.00 | 46 | 1008.3 |
| 20260509211005 | 74 | 265 | 0.9 | 9.6 | 0.00 | 0.00 | 0.00 | 45 | 1008.3 |
| 20260509210508 | 74 | 268 | 1.7 | 9.6 | 0.00 | 0.00 | 0.00 | 44 | 1008.3 |
| 20260509210016 | 74 | 271 | 3.5 | 7.0 | 0.00 | 0.00 | 0.00 | 45 | 1008.2 |
| 20260509205507 | 75 | 242 | 2.6 | 7.0 | 0.00 | 0.00 | 0.00 | 42 | 1008.2 |
| 20260509205005 | 76 | 211 | 0.9 | 6.1 | 0.00 | 0.00 | 0.00 | 45 | 1008.2 |
| 20260509204514 | 75 | 282 | 2.6 | 10.4 | 0.00 | 0.00 | 0.00 | 45 | 1008.3 |
| 20260509204008 | 74 | 256 | 2.6 | 10.4 | 0.00 | 0.00 | 0.00 | 44 | 1008.3 |
| 20260509203506 | 75 | 229 | 2.6 | 7.0 | 0.00 | 0.00 | 0.00 | 44 | 1008.4 |
| 20260509203019 | 75 | 274 | 0.9 | 8.7 | 0.00 | 0.00 | 0.00 | 44 | 1008.3 |
| 20260509201508 | 74 | 257 | 2.6 | 7.8 | 0.00 | 0.00 | 0.00 | 48 | 1008.3 |
| 20260509201005 | 73 | 208 | 2.6 | 7.0 | 0.00 | 0.00 | 0.00 | 47 | 1008.3 |
| 20260509200504 | 74 | 159 | 1.7 | 8.7 | 0.00 | 0.00 | 0.00 | 46 | 1008.3 |
| 20260509200006 | 73 | 221 | 1.7 | 9.6 | 0.00 | 0.00 | 0.00 | 48 | 1008.4 |
| 20260509195508 | 73 | 210 | 2.6 | 9.6 | 0.00 | 0.00 | 0.00 | 47 | 1008.4 |
| 20260509195004 | 73 | 215 | 2.6 | 8.7 | 0.00 | 0.00 | 0.00 | 47 | 1008.5 |
| 20260509194515 | 73 | 265 | 0.9 | 7.0 | 0.00 | 0.00 | 0.00 | 48 | 1008.7 |
| 20260509194012 | 72 | 167 | 2.6 | 10.4 | 0.00 | 0.00 | 0.00 | 48 | 1008.6 |
| 20260509193513 | 73 | 202 | 2.6 | 10.4 | 0.00 | 0.00 | 0.00 | 48 | 1008.8 |
| 20260509193020 | 72 | 186 | 2.6 | 7.8 | 0.00 | 0.00 | 0.00 | 48 | 1008.8 |
| 20260509192508 | 72 | 240 | 0.0 | 6.1 | 0.00 | 0.00 | 0.00 | 49 | 1008.8 |
| 20260509192011 | 72 | 333 | 1.7 | 7.0 | 0.00 | 0.00 | 0.00 | 50 | 1008.8 |
| 20260509191007 | 72 | 228 | 1.7 | 7.0 | 0.00 | 0.00 | 0.00 | 49 | 1009.1 |
| 20260509190014 | 71 | 248 | 4.3 | 7.8 | 0.00 | 0.00 | 0.00 | 49 | 1009.3 |
| 20260509185508 | 71 | 228 | 1.7 | 7.8 | 0.00 | 0.00 | 0.00 | 49 | 1009.3 |
| 20260509185004 | 71 | 101 | 1.7 | 7.8 | 0.00 | 0.00 | 0.00 | 51 | 1009.3 |
| 20260509184508 | 71 | 210 | 3.5 | 7.8 | 0.00 | 0.00 | 0.00 | 50 | 1009.4 |
| 20260509184006 | 71 | 140 | 0.0 | 4.3 | 0.00 | 0.00 | 0.00 | 49 | 1009.3 |
| 20260509183506 | 72 | 164 | 1.7 | 6.1 | 0.00 | 0.00 | 0.00 | 49 | 1009.1 |
| 20260509183014 | 70 | 274 | 0.9 | 6.1 | 0.00 | 0.00 | 0.00 | 51 | 1009.3 |
| 20260509182506 | 71 | 189 | 0.9 | 3.5 | 0.00 | 0.00 | 0.00 | 53 | 1009.6 |
| 20260509182008 | 69 | 21 | 0.9 | 3.5 | 0.00 | 0.00 | 0.00 | 51 | 1009.6 |
| 20260509181520 | 70 | 50 | 0.0 | 3.5 | 0.00 | 0.00 | 0.00 | 50 | 1009.7 |
| 20260509181013 | 70 | 198 | 0.0 | 2.6 | 0.00 | 0.00 | 0.00 | 51 | 1009.9 |
| 20260509180508 | 69 | 278 | 0.0 | 2.6 | 0.00 | 0.00 | 0.00 | 52 | 1009.7 |
| 20260509175003 | 69 | 292 | 0.0 | 3.5 | 0.00 | 0.00 | 0.00 | 53 | 1010.2 |
| 20260509174514 | 69 | 291 | 0.9 | 3.5 | 0.00 | 0.00 | 0.00 | 50 | 1010.4 |
| 20260509174010 | 69 | 310 | 0.0 | 1.7 | 0.00 | 0.00 | 0.00 | 50 | 1010.4 |
| 20260509173506 | 69 | 279 | 0.0 | 1.7 | 0.00 | 0.00 | 0.00 | 51 | 1010.4 |
| 20260509173014 | 69 | 258 | 0.9 | 2.6 | 0.00 | 0.00 | 0.00 | 51 | 1010.4 |
| 20260509172507 | 68 | 84 | 0.0 | 2.6 | 0.00 | 0.00 | 0.00 | 52 | 1010.4 |
| 20260509172008 | 70 | 240 | 0.0 | 1.7 | 0.00 | 0.00 | 0.00 | 50 | 1010.5 |
| 20260509171526 | 69 | 147 | 0.0 | 3.5 | 0.00 | 0.00 | 0.00 | 50 | 1010.7 |
| 20260509171008 | 70 | 340 | 1.7 | 4.3 | 0.00 | 0.00 | 0.00 | 49 | 1010.7 |
| 20260509170509 | 69 | 272 | 0.9 | 4.3 | 0.00 | 0.00 | 0.00 | 50 | 1010.7 |
| 20260509170024 | 69 | 279 | 0.0 | 2.6 | 0.00 | 0.00 | 0.00 | 50 | 1010.7 |
| 20260509165011 | 68 | 238 | 0.0 | 5.2 | 0.00 | 0.00 | 0.00 | 53 | 1010.7 |
| 20260509163506 | 67 | 288 | 1.7 | 5.2 | 0.00 | 0.00 | 0.00 | 53 | 1010.7 |
| 20260509163015 | 68 | 265 | 0.9 | 3.5 | 0.00 | 0.00 | 0.00 | 50 | 1010.7 |
| 20260509162507 | 67 | 227 | 1.7 | 3.5 | 0.00 | 0.00 | 0.00 | 51 | 1010.7 |
| 20260509162006 | 68 | 271 | 1.7 | 2.6 | 0.00 | 0.00 | 0.00 | 48 | 1010.8 |
| 20260509161517 | 67 | 89 | 0.0 | 2.6 | 0.00 | 0.00 | 0.00 | 51 | 1010.7 |
| 20260509161007 | 67 | 144 | 0.0 | 4.3 | 0.00 | 0.00 | 0.00 | 51 | 1010.7 |
| 20260509160508 | 67 | 204 | 0.0 | 5.2 | 0.00 | 0.00 | 0.00 | 51 | 1010.9 |
| 20260509160022 | 66 | 184 | 2.6 | 5.2 | 0.00 | 0.00 | 0.00 | 50 | 1011.0 |
| 20260509155505 | 67 | 263 | 0.0 | 3.5 | 0.00 | 0.00 | 0.00 | 50 | 1010.9 |
| 20260509155011 | 66 | 265 | 1.7 | 3.5 | 0.00 | 0.00 | 0.00 | 50 | 1010.9 |
| 20260509154524 | 67 | 239 | 0.0 | 2.6 | 0.00 | 0.00 | 0.00 | 51 | 1010.9 |
| 20260509153506 | 66 | 157 | 0.0 | 5.2 | 0.00 | 0.00 | 0.00 | 50 | 1010.9 |
| 20260509152504 | 65 | 298 | 0.0 | 3.5 | 0.00 | 0.00 | 0.00 | 51 | 1011.0 |
| 20260509152006 | 66 | 242 | 0.9 | 3.5 | 0.00 | 0.00 | 0.00 | 51 | 1011.1 |
| 20260509151518 | 66 | 171 | 0.9 | 3.5 | 0.00 | 0.00 | 0.00 | 49 | 1011.1 |
| 20260509151006 | 65 | 331 | 0.9 | 7.0 | 0.00 | 0.00 | 0.00 | 50 | 1011.0 |
| 20260509150507 | 65 | 248 | 0.9 | 7.0 | 0.00 | 0.00 | 0.00 | 51 | 1011.2 |
| 20260509150020 | 65 | 200 | 0.9 | 2.6 | 0.00 | 0.00 | 0.00 | 50 | 1011.2 |
| 20260509145508 | 65 | 158 | 0.0 | 2.6 | 0.00 | 0.00 | 0.00 | 50 | 1011.3 |
| 20260509145008 | 64 | 72 | 0.9 | 6.1 | 0.00 | 0.00 | 0.00 | 52 | 1011.4 |
| 20260509144522 | 63 | 187 | 0.9 | 6.1 | 0.00 | 0.00 | 0.00 | 52 | 1011.4 |
| 20260509143515 | 63 | 155 | 3.5 | 7.8 | 0.00 | 0.00 | 0.00 | 53 | 1011.5 |
| 20260509143027 | 62 | 209 | 3.5 | 7.8 | 0.00 | 0.00 | 0.00 | 54 | 1011.6 |
| 20260509141008 | 61 | 94 | 2.6 | 4.3 | 0.00 | 0.00 | 0.00 | 55 | 1011.7 |
| 20260509140506 | 61 | 239 | 0.9 | 7.0 | 0.00 | 0.00 | 0.00 | 57 | 1011.7 |
| 20260509140019 | 60 | 259 | 1.7 | 7.8 | 0.00 | 0.00 | 0.00 | 57 | 1011.7 |
| 20260509135503 | 60 | 242 | 4.3 | 7.8 | 0.00 | 0.00 | 0.00 | 56 | 1011.6 |
| 20260509135004 | 60 | 212 | 1.7 | 5.2 | 0.00 | 0.00 | 0.00 | 57 | 1011.5 |
| 20260509134504 | 59 | 238 | 1.7 | 5.2 | 0.00 | 0.00 | 0.00 | 57 | 1011.4 |
| 20260509134006 | 59 | 261 | 1.7 | 5.2 | 0.00 | 0.00 | 0.00 | 57 | 1011.5 |
| 20260509133504 | 59 | 250 | 2.6 | 6.1 | 0.00 | 0.00 | 0.00 | 57 | 1011.5 |
| 20260509133005 | 59 | 215 | 2.6 | 6.1 | 0.00 | 0.00 | 0.00 | 56 | 1011.6 |
| 20260509132503 | 59 | 246 | 1.7 | 7.0 | 0.00 | 0.00 | 0.00 | 56 | 1011.6 |
| 20260509132007 | 59 | 166 | 0.9 | 7.0 | 0.00 | 0.00 | 0.00 | 57 | 1011.7 |
| 20260509131517 | 58 | 202 | 3.5 | 8.7 | 0.00 | 0.00 | 0.00 | 56 | 1011.7 |
| 20260509131008 | 59 | 184 | 3.5 | 8.7 | 0.00 | 0.00 | 0.00 | 56 | 1011.6 |
| 20260509130509 | 59 | 237 | 1.7 | 8.7 | 0.00 | 0.00 | 0.00 | 57 | 1011.6 |
| 20260509130016 | 58 | 300 | 2.6 | 8.7 | 0.00 | 0.00 | 0.00 | 57 | 1011.6 |
| 20260509125514 | 58 | 238 | 1.7 | 6.1 | 0.00 | 0.00 | 0.00 | 57 | 1011.6 |
| 20260509125008 | 58 | 196 | 1.7 | 6.1 | 0.00 | 0.00 | 0.00 | 58 | 1011.7 |
| 20260509124519 | 58 | 255 | 1.7 | 5.2 | 0.00 | 0.00 | 0.00 | 58 | 1011.8 |
| 20260509124003 | 58 | 179 | 0.9 | 5.2 | 0.00 | 0.00 | 0.00 | 58 | 1011.7 |
| 20260509123504 | 58 | 189 | 1.7 | 5.2 | 0.00 | 0.00 | 0.00 | 58 | 1011.7 |
| 20260509123006 | 59 | 201 | 0.9 | 4.3 | 0.00 | 0.00 | 0.00 | 58 | 1011.7 |
| 20260509122504 | 58 | 233 | 1.7 | 5.2 | 0.00 | 0.00 | 0.00 | 58 | 1011.7 |
| 20260509122006 | 58 | 186 | 0.0 | 5.2 | 0.00 | 0.00 | 0.00 | 56 | 1011.7 |
| 20260509121517 | 58 | 242 | 1.7 | 4.3 | 0.00 | 0.00 | 0.00 | 56 | 1011.6 |
| 20260509121004 | 58 | 209 | 0.9 | 4.3 | 0.00 | 0.00 | 0.00 | 56 | 1011.7 |
| 20260509120508 | 58 | 309 | 0.9 | 5.2 | 0.00 | 0.00 | 0.00 | 56 | 1011.7 |
| 20260509120014 | 58 | 270 | 2.6 | 6.1 | 0.00 | 0.00 | 0.00 | 55 | 1011.5 |
| 20260509115505 | 58 | 259 | 1.7 | 10.4 | 0.00 | 0.00 | 0.00 | 55 | 1011.4 |
| 20260509115007 | 58 | 150 | 1.7 | 10.4 | 0.00 | 0.00 | 0.00 | 55 | 1011.3 |
| 20260509114519 | 58 | 189 | 2.6 | 7.8 | 0.00 | 0.00 | 0.00 | 55 | 1011.3 |
| 20260509114010 | 58 | 192 | 2.6 | 7.8 | 0.00 | 0.00 | 0.00 | 56 | 1011.3 |
| 20260509113512 | 58 | 170 | 0.9 | 7.8 | 0.00 | 0.00 | 0.00 | 56 | 1011.3 |
| 20260509113021 | 57 | 216 | 1.7 | 7.8 | 0.00 | 0.00 | 0.00 | 57 | 1011.2 |
| 20260509112504 | 57 | 194 | 1.7 | 4.3 | 0.00 | 0.00 | 0.00 | 57 | 1011.1 |
| 20260509112004 | 57 | 187 | 0.9 | 5.2 | 0.00 | 0.00 | 0.00 | 57 | 1011.0 |
| 20260509111511 | 57 | 174 | 0.9 | 5.2 | 0.00 | 0.00 | 0.00 | 57 | 1011.0 |
| 20260509111006 | 57 | 188 | 1.7 | 7.0 | 0.00 | 0.00 | 0.00 | 56 | 1011.0 |
| 20260509110505 | 57 | 213 | 0.9 | 7.0 | 0.00 | 0.00 | 0.00 | 56 | 1011.0 |
| 20260509110013 | 58 | 173 | 0.0 | 3.5 | 0.00 | 0.00 | 0.00 | 57 | 1010.9 |
| 20260509105505 | 57 | 222 | 0.9 | 5.2 | 0.00 | 0.00 | 0.00 | 60 | 1010.9 |
| 20260509105010 | 57 | 192 | 1.7 | 5.2 | 0.00 | 0.00 | 0.00 | 57 | 1010.8 |
| 20260509104530 | 57 | 266 | 0.9 | 4.3 | 0.00 | 0.00 | 0.00 | 56 | 1010.8 |
| 20260509104011 | 57 | 245 | 1.7 | 4.3 | 0.00 | 0.00 | 0.00 | 56 | 1010.8 |
| 20260509103508 | 57 | 189 | 1.7 | 3.5 | 0.00 | 0.00 | 0.00 | 56 | 1010.6 |
| 20260509103021 | 57 | 209 | 0.9 | 3.5 | 0.00 | 0.00 | 0.00 | 56 | 1010.5 |
| 20260509102511 | 57 | 209 | 0.9 | 4.3 | 0.00 | 0.00 | 0.00 | 57 | 1010.6 |
| 20260509102011 | 57 | 239 | 0.9 | 4.3 | 0.00 | 0.00 | 0.00 | 56 | 1010.5 |
| 20260509101528 | 56 | 224 | 0.0 | 3.5 | 0.00 | 0.00 | 0.00 | 56 | 1010.5 |
| 20260509101005 | 57 | 157 | 0.0 | 4.3 | 0.00 | 0.00 | 0.00 | 56 | 1010.5 |
| 20260509100503 | 57 | 172 | 0.9 | 5.2 | 0.00 | 0.00 | 0.00 | 56 | 1010.7 |
| 20260509100024 | 57 | 229 | 2.6 | 5.2 | 0.00 | 0.00 | 0.00 | 56 | 1010.7 |
| 20260509095506 | 57 | 196 | 1.7 | 5.2 | 0.00 | 0.00 | 0.00 | 56 | 1010.7 |
| 20260509095008 | 57 | 210 | 1.7 | 5.2 | 0.00 | 0.00 | 0.00 | 56 | 1010.7 |
| 20260509094521 | 57 | 217 | 1.7 | 5.2 | 0.00 | 0.00 | 0.00 | 55 | 1010.6 |
| 20260509094006 | 57 | 215 | 2.6 | 6.1 | 0.00 | 0.00 | 0.00 | 55 | 1010.7 |
| 20260509093510 | 57 | 227 | 1.7 | 7.0 | 0.00 | 0.00 | 0.00 | 55 | 1010.7 |
| 20260509093022 | 57 | 228 | 3.5 | 7.8 | 0.00 | 0.00 | 0.00 | 55 | 1010.8 |
| 20260509092507 | 57 | 227 | 1.7 | 7.8 | 0.00 | 0.00 | 0.00 | 55 | 1010.8 |
| 20260509092008 | 57 | 177 | 0.9 | 5.2 | 0.00 | 0.00 | 0.00 | 55 | 1010.9 |
| 20260509091525 | 57 | 267 | 1.7 | 5.2 | 0.00 | 0.00 | 0.00 | 54 | 1010.9 |
| 20260509091009 | 57 | 224 | 1.7 | 7.0 | 0.00 | 0.00 | 0.00 | 54 | 1010.9 |
| 20260509090510 | 57 | 207 | 1.7 | 7.0 | 0.00 | 0.00 | 0.00 | 54 | 1011.0 |
| 20260509090028 | 57 | 248 | 0.9 | 4.3 | 0.00 | 0.00 | 0.00 | 54 | 1011.0 |
| 20260509085503 | 57 | 210 | 1.7 | 6.1 | 0.00 | 0.00 | 0.00 | 54 | 1011.0 |
| 20260509085008 | 57 | 223 | 3.5 | 7.0 | 0.00 | 0.00 | 0.00 | 53 | 1011.0 |
| 20260509084007 | 57 | 267 | 0.9 | 8.7 | 0.00 | 0.00 | 0.00 | 53 | 1011.0 |
| 20260509083506 | 57 | 188 | 2.6 | 8.7 | 0.00 | 0.00 | 0.00 | 52 | 1011.0 |
| 20260509083019 | 58 | 264 | 2.6 | 9.6 | 0.00 | 0.00 | 0.00 | 52 | 1011.1 |
| 20260509082516 | 58 | 169 | 2.6 | 9.6 | 0.00 | 0.00 | 0.00 | 52 | 1011.1 |
| 20260509082010 | 58 | 190 | 1.7 | 9.6 | 0.00 | 0.00 | 0.00 | 52 | 1011.1 |
| 20260509081536 | 58 | 211 | 3.5 | 12.2 | 0.00 | 0.00 | 0.00 | 51 | 1011.2 |
| 20260509080509 | 58 | 282 | 1.7 | 7.0 | 0.00 | 0.00 | 0.00 | 52 | 1011.3 |
| 20260509080025 | 58 | 269 | 0.9 | 7.0 | 0.00 | 0.00 | 0.00 | 51 | 1011.4 |
| 20260509074004 | 58 | 201 | 1.7 | 7.0 | 0.00 | 0.00 | 0.00 | 52 | 1011.3 |
| 20260509073506 | 58 | 182 | 1.7 | 7.0 | 0.00 | 0.00 | 0.00 | 52 | 1011.3 |
| 20260509072011 | 58 | 170 | 1.7 | 7.0 | 0.00 | 0.00 | 0.00 | 52 | 1011.3 |
| 20260509071010 | 58 | 169 | 1.7 | 7.8 | 0.00 | 0.00 | 0.00 | 51 | 1011.3 |
| 20260509065515 | 58 | 207 | 2.6 | 8.7 | 0.00 | 0.00 | 0.00 | 51 | 1011.3 |
| 20260509063011 | 58 | 197 | 1.7 | 7.8 | 0.00 | 0.00 | 0.00 | 51 | 1011.5 |
| 20260509062510 | 59 | 221 | 2.6 | 7.8 | 0.00 | 0.00 | 0.00 | 50 | 1011.5 |
| 20260509062009 | 59 | 161 | 1.7 | 7.8 | 0.00 | 0.00 | 0.00 | 50 | 1011.5 |
| 20260509061520 | 59 | 194 | 2.6 | 7.8 | 0.00 | 0.00 | 0.00 | 50 | 1011.5 |
| 20260509061007 | 59 | 161 | 1.7 | 7.8 | 0.00 | 0.00 | 0.00 | 50 | 1011.5 |
| 20260509060507 | 59 | 179 | 1.7 | 5.2 | 0.00 | 0.00 | 0.00 | 50 | 1011.6 |
| 20260509060021 | 59 | 157 | 1.7 | 5.2 | 0.00 | 0.00 | 0.00 | 49 | 1011.6 |
| 20260509055510 | 59 | 227 | 1.7 | 6.1 | 0.00 | 0.00 | 0.00 | 49 | 1011.6 |
| 20260509055015 | 59 | 251 | 1.7 | 6.1 | 0.00 | 0.00 | 0.00 | 50 | 1011.7 |
| 20260509054526 | 59 | 228 | 2.6 | 7.8 | 0.00 | 0.00 | 0.00 | 49 | 1011.7 |
| 20260509054009 | 59 | 211 | 1.7 | 7.8 | 0.00 | 0.00 | 0.00 | 50 | 1011.7 |
| 20260509053510 | 59 | 161 | 2.6 | 7.0 | 0.00 | 0.00 | 0.00 | 49 | 1011.6 |
| 20260509053029 | 59 | 190 | 1.7 | 7.0 | 0.00 | 0.00 | 0.00 | 49 | 1011.6 |
| 20260509052510 | 59 | 194 | 2.6 | 7.0 | 0.00 | 0.00 | 0.00 | 49 | 1011.7 |
| 20260509052011 | 59 | 177 | 3.5 | 9.6 | 0.00 | 0.00 | 0.00 | 49 | 1011.6 |
| 20260509051012 | 59 | 233 | 2.6 | 7.8 | 0.00 | 0.00 | 0.00 | 48 | 1011.8 |
| 20260509050509 | 60 | 245 | 2.6 | 7.0 | 0.00 | 0.00 | 0.00 | 48 | 1011.8 |
| 20260509050028 | 60 | 209 | 2.6 | 6.1 | 0.00 | 0.00 | 0.00 | 48 | 1011.8 |